This demonstration page uses our WeatherBlox Daily Observations layout. Learn more.

Left ArrowRight Arrow

39.51506, -84.39828

Hourly Observations for May 23, 2021

Temp ( °F °C ) Dew Point ( °F °C ) Humidity (%) Winds ( mph kmh ) Pressure ( in mb ) Visibility ( mi km ) Precip ( " mm )
12:15 am 00:15 Clear 65 18.3 62 16.8 91 91 Calm 30.26 1025 10 16 0.00 0.00
12:35 am 00:35 Clear 64 18 61 16.3 90 90 Calm 30.26 1025 10 16 0.00 0.00
12:55 am 00:55 Clear 63 17.4 61 16 92 92 Calm 30.26 1025 10 16 0.00 0.00
1:15 am 01:15 Clear 62 16.9 62 16.4 97 97 Calm 30.25 1024 10 16 0.00 0.00
1:35 am 01:35 Clear 64 17.7 62 16.9 95 95 Calm 30.25 1024 10 16 0.00 0.00
1:55 am 01:55 Clear 63 17.2 62 16.6 96 96 Calm 30.25 1024 10 16 0.00 0.00
2:15 am 02:15 Clear 61 16 61 16 100 100 Calm 30.24 1024 7 11 0.00 0.00
2:35 am 02:35 Clear 59 15 N/A N/A Calm 30.25 1024 10 16 0.00 0.00
2:55 am 02:55 Clear 61 16 N/A N/A Calm 30.24 1024 7 11 0.00 0.00
3:15 am 03:15 Hazy 59 15 N/A N/A Calm 30.25 1024 5 8 0.00 0.00
3:35 am 03:35 Hazy 61 16 N/A N/A Calm 30.25 1025 7 11 0.00 0.00
3:55 am 03:55 Mostly Cloudy with Fog 59 15 N/A N/A Calm 30.26 1025 1 1 0.00 0.00
4:15 am 04:15 Hazy 59 15 N/A N/A Calm 30.26 1025 5 8 0.00 0.00
4:35 am 04:35 Clear 59 15 N/A N/A Calm 30.25 1024 10 16 0.00 0.00
4:55 am 04:55 Clear with Mist and Fog 57 14 N/A N/A Calm 30.25 1024 4 6 0.00 0.00
5:15 am 05:15 Mostly Cloudy with Mist and Fog 57 14 N/A N/A Calm 30.25 1024 1 2 0.00 0.00
5:35 am 05:35 Mostly Cloudy with Fog 57 14 N/A N/A Calm 30.25 1024 1 1 0.00 0.00
5:55 am 05:55 Mostly Cloudy with Mist and Fog 57 14 N/A N/A Calm 30.26 1025 1 1 0.00 0.00
6:15 am 06:15 Mostly Cloudy with Mist and Fog 57 14 N/A N/A Calm 30.26 1025 1 1 0.00 0.00
6:35 am 06:35 Mostly Cloudy with Fog 57 14 N/A N/A Calm 30.26 1025 1 1 0.00 0.00
6:55 am 06:55 Mostly Cloudy with Mist and Fog 57 14 N/A N/A Calm 30.27 1025 1 2 0.00 0.00
7:15 am 07:15 Sunny with Mist and Fog 59 15 N/A N/A Calm 30.27 1025 3 5 0.00 0.00
7:35 am 07:35 Hazy 61 16 N/A N/A Calm 30.27 1025 5 8 0.00 0.00
7:55 am 07:55 Sunny 63 17 N/A N/A SW 5 7 30.27 1025 10 16 0.00 0.00
8:15 am 08:15 Sunny 66 18.9 62 16.8 88 88 SW 5 7 30.27 1025 10 16 0.00 0.00
8:35 am 08:35 Sunny 68 20.2 62 16.6 80 80 SW 3 6 30.25 1025 10 16 0.00 0.00
8:55 am 08:55 Sunny 71 21.5 63 17.3 77 77 WSW 3 6 30.25 1024 10 16 0.00 0.00
9:15 am 09:15 Sunny 72 22.3 64 17.6 75 75 SSW 6 9 30.25 1024 10 16 0.00 0.00
9:35 am 09:35 Sunny 74 23.5 64 17.8 70 70 S 5 7 30.25 1024 10 16 0.00 0.00
9:55 am 09:55 Sunny 76 24.6 64 17.8 66 66 Calm 30.24 1024 10 16 0.00 0.00
10:15 am 10:15 Sunny 78 25.7 64 17.5 61 61 WNW 6 9 30.23 1024 10 16 0.00 0.00
10:35 am 10:35 Sunny 80 26.4 63 17.2 57 57 NNW 9 15 30.23 1024 10 16 0.00 0.00
10:55 am 10:55 Sunny 80 26.8 64 17.7 57 57 WNW 10 17 30.22 1023 10 16 0.00 0.00
11:15 am 11:15 Partly Cloudy 81 27 61 16.3 52 52 NW 12 19 30.22 1023 10 16 0.00 0.00
11:35 am 11:35 Partly Cloudy 81 27.3 63 17.3 54 54 WNW 8 13 30.21 1023 7 11 0.00 0.00
11:55 am 11:55 Partly Cloudy 82 27.7 63 17 52 52 NW 10 17 30.21 1023 10 16 0.00 0.00
12:15 pm 12:15 Partly Cloudy 82 27.8 62 16.8 51 51 NNW 10 17 30.20 1023 10 16 0.00 0.00
12:35 pm 12:35 Partly Cloudy 83 28.3 63 17 50 50 NNW 12 19 30.19 1022 10 16 0.00 0.00
12:55 pm 12:55 Mostly Cloudy 83 28.4 62 16.9 50 50 W 10 17 30.19 1022 10 16 0.00 0.00
1:15 pm 13:15 Mostly Cloudy 82 28 61 16.2 49 49 NW 8 13 30.18 1022 10 16 0.00 0.00
1:35 pm 13:35 Mostly Cloudy 83 28.2 62 16.4 49 49 NW 12 19 30.18 1022 10 16 0.00 0.00
1:55 pm 13:55 Cloudy 83 28.3 62 16.9 50 50 WNW 9 15 30.17 1022 10 16 0.00 0.00
2:15 pm 14:15 Cloudy 82 27.7 61 16.3 50 50 NW 14 22 30.17 1022 10 16 0.00 0.00
2:35 pm 14:35 Cloudy 81 27.1 63 17.3 55 55 WNW 8 13 30.17 1022 10 16 0.00 0.00
2:55 pm 14:55 Cloudy 82 27.6 62 16.7 51 51 W 13 20 30.17 1022 10 16 0.00 0.00
3:15 pm 15:15 Mostly Cloudy 83 28.2 63 17.1 51 51 WNW 12 19 30.16 1021 10 16 0.00 0.00
3:35 pm 15:35 Partly Cloudy 84 28.7 63 17.2 50 50 W 13 20 30.15 1021 10 16 0.00 0.00
3:55 pm 15:55 Cloudy 85 29.2 64 17.9 51 51 WNW 10 17 30.14 1021 10 16 0.00 0.00
4:15 pm 16:15 Partly Cloudy 82 28 64 17.6 53 53 NW 9 15 30.15 1021 10 16 0.00 0.00
4:35 pm 16:35 Cloudy 82 27.6 63 17.4 54 54 W 12 19 30.14 1021 10 16 0.00 0.00
4:55 pm 16:55 Cloudy 82 27.9 64 17.8 54 54 WNW 10 17 30.14 1021 10 16 0.00 0.00
5:15 pm 17:15 Cloudy 82 28 64 17.9 54 54 W 9 15 30.14 1021 10 16 0.00 0.00
5:35 pm 17:35 Cloudy 83 28.1 64 17.5 53 53 NW 9 15 30.14 1021 10 16 0.00 0.00
5:55 pm 17:55 Cloudy 82 27.8 64 18 55 55 WNW 10 17 30.14 1021 10 16 0.00 0.00
6:15 pm 18:15 Cloudy 82 27.8 64 18 55 55 WNW 9 15 30.14 1021 10 16 0.00 0.00
6:35 pm 18:35 Cloudy 82 27.7 65 18.2 56 56 WNW 9 15 30.13 1020 10 16 0.00 0.00
6:55 pm 18:55 Cloudy 81 27.3 65 18.3 58 58 WNW 7 11 30.13 1020 10 16 0.00 0.00
7:15 pm 19:15 Cloudy 81 27 64 17.9 58 58 W 8 13 30.13 1020 10 16 0.00 0.00
7:35 pm 19:35 Cloudy 80 26.8 64 18 59 59 W 8 13 30.13 1020 10 16 0.00 0.00
7:55 pm 19:55 Cloudy 80 26.4 65 18.4 62 62 W 5 7 30.13 1020 10 16 0.00 0.00
8:15 pm 20:15 Cloudy 78 25.7 67 19.2 67 67 W 5 7 30.13 1020 10 16 0.00 0.00
8:35 pm 20:35 Cloudy 76 24.5 67 19.6 74 74 W 3 6 30.13 1020 10 16 0.00 0.00
8:55 pm 20:55 Cloudy 74 23.6 69 20.7 84 84 W 3 6 30.14 1021 7 11 0.00 0.00
9:15 pm 21:15 Cloudy 74 23.2 70 21 87 87 Calm 30.14 1021 10 16 0.00 0.00
9:35 pm 21:35 Cloudy 74 23.3 69 20.4 84 84 Calm 30.15 1021 10 16 0.00 0.00
9:55 pm 21:55 Cloudy 73 22.7 70 21.2 91 91 Calm 30.15 1021 10 16 0.00 0.00
10:15 pm 22:15 Cloudy 73 22.7 70 21 90 90 Calm 30.15 1021 10 16 0.00 0.00
10:35 pm 22:35 Cloudy 72 22.2 69 20.8 92 92 Calm 30.16 1021 10 16 0.00 0.00
10:55 pm 22:55 Mostly Cloudy 71 21.8 68 20.2 91 91 Calm 30.16 1021 10 16 0.00 0.00
11:15 pm 23:15 Cloudy 70 20.9 69 20.3 96 96 Calm 30.16 1021 10 16 0.00 0.00
11:35 pm 23:35 Partly Cloudy with Mist and Fog 69 20.8 69 20.3 97 97 Calm 30.16 1021 7 11 0.00 0.00
11:55 pm 23:55 Mostly Cloudy 69 20.8 68 19.9 95 95 Calm 30.16 1021 10 16 0.00 0.00

Powered by AerisWeather